TimePST,TemperatureF,Dew PointF,Humidity,Sea Level PressureIn,VisibilityMPH,Wind Direction,Wind SpeedMPH,Gust SpeedMPH,PrecipitationIn,Events,Conditions,WindDirDegrees,DateUTC
12:04 AM,32.0,28.4,87,29.92,1.8,Calm,Calm,-,0.00,Snow,Light Snow,0,2013-01-28 08:04:00
12:32 AM,32.0,28.4,87,29.91,1.2,Calm,Calm,-,0.00,Snow,Light Snow,0,2013-01-28 08:32:00
12:53 AM,32.0,28.9,88,29.96,1.0,Calm,Calm,-,0.01,Snow,Light Snow,0,2013-01-28 08:53:00
1:53 AM,32.0,28.9,88,29.96,1.2,SSW,3.5,-,0.02,Snow,Light Snow,200,2013-01-28 09:53:00
2:27 AM,33.8,28.4,81,29.91,2.0,Calm,Calm,-,0.00,Snow,Light Snow,0,2013-01-28 10:27:00
2:34 AM,32.0,28.4,87,29.91,3.0,Calm,Calm,-,0.00,Snow,Light Snow,0,2013-01-28 10:34:00
2:53 AM,32.0,28.9,88,29.95,2.5,Calm,Calm,-,0.00,Snow,Light Snow,0,2013-01-28 10:53:00
2:57 AM,32.0,28.4,87,29.90,1.8,Calm,Calm,-,0.00,Snow,Light Snow,0,2013-01-28 10:57:00
3:20 AM,32.0,28.4,87,29.90,2.5,Calm,Calm,-,0.01,Snow,Light Snow,0,2013-01-28 11:20:00
3:27 AM,32.0,28.4,87,29.90,4.0,Calm,Calm,-,0.01,Snow,Light Snow,0,2013-01-28 11:27:00
3:39 AM,32.0,28.4,87,29.90,2.0,Calm,Calm,-,0.01,Snow,Light Snow,0,2013-01-28 11:39:00
3:51 AM,32.0,28.4,87,29.90,5.0,SW,3.5,-,0.01,Snow,Light Snow,230,2013-01-28 11:51:00
3:53 AM,32.0,28.9,88,29.95,5.0,SW,3.5,-,0.01,,Overcast,230,2013-01-28 11:53:00
4:26 AM,33.8,28.4,81,29.90,10.0,WSW,5.8,-,N/A,,Overcast,240,2013-01-28 12:26:00
4:53 AM,33.1,28.0,82,29.94,10.0,SW,8.1,-,N/A,,Overcast,230,2013-01-28 12:53:00
5:53 AM,33.1,28.0,82,29.94,10.0,SW,9.2,-,N/A,,Overcast,230,2013-01-28 13:53:00
6:53 AM,32.0,28.0,85,29.95,10.0,WSW,3.5,-,N/A,,Overcast,250,2013-01-28 14:53:00
7:53 AM,32.0,28.0,85,29.96,8.0,SW,6.9,-,0.00,Snow,Light Snow,230,2013-01-28 15:53:00
9:11 AM,33.8,28.4,81,29.90,3.0,WSW,3.5,-,0.01,Snow,Light Snow,250,2013-01-28 17:11:00
9:18 AM,33.8,28.4,81,29.90,3.0,Calm,Calm,-,0.01,Snow,Light Snow,0,2013-01-28 17:18:00
9:53 AM,33.1,28.0,82,29.94,6.0,SW,3.5,-,0.01,,Overcast,230,2013-01-28 17:53:00
10:53 AM,34.0,28.0,79,29.94,10.0,WSW,5.8,-,0.00,,Overcast,240,2013-01-28 18:53:00
11:53 AM,32.0,26.1,79,29.93,10.0,SW,13.8,-,N/A,,Overcast,230,2013-01-28 19:53:00
12:53 PM,30.0,26.1,85,29.94,8.0,West,9.2,-,N/A,,Overcast,260,2013-01-28 20:53:00
1:53 PM,30.0,24.1,79,29.94,10.0,WSW,9.2,-,N/A,,Overcast,240,2013-01-28 21:53:00
2:53 PM,30.0,25.0,82,29.94,4.0,WSW,6.9,-,0.00,Snow,Light Snow,240,2013-01-28 22:53:00
3:53 PM,30.0,25.0,82,29.93,5.0,WSW,4.6,-,0.00,Snow,Light Snow,240,2013-01-28 23:53:00
4:53 PM,30.0,25.0,82,29.92,10.0,SW,4.6,-,0.00,,Overcast,230,2013-01-29 00:53:00
5:08 PM,30.2,24.8,80,29.88,9.0,SW,6.9,-,0.00,Snow,Light Snow,230,2013-01-29 01:08:00
5:53 PM,30.9,25.0,79,29.92,9.0,SW,6.9,-,0.00,,Overcast,220,2013-01-29 01:53:00
6:25 PM,30.2,26.6,86,29.87,6.0,SW,3.5,-,N/A,,Overcast,220,2013-01-29 02:25:00
6:42 PM,30.2,26.6,86,29.87,2.0,Calm,Calm,-,0.00,Snow,Light Snow,0,2013-01-29 02:42:00
6:53 PM,30.9,26.1,82,29.92,2.0,Calm,Calm,-,0.00,Snow,Light Snow,0,2013-01-29 02:53:00
7:53 PM,30.0,26.1,85,29.91,2.5,ENE,4.6,-,0.00,Snow,Light Snow,70,2013-01-29 03:53:00
7:59 PM,30.2,26.6,86,29.84,3.0,East,3.5,-,0.00,Snow,Light Snow,80,2013-01-29 03:59:00
8:19 PM,30.2,26.6,86,29.85,2.0,Calm,Calm,-,0.00,Snow,Light Snow,0,2013-01-29 04:19:00
8:29 PM,30.2,26.6,86,29.85,1.8,Calm,Calm,-,0.00,Snow,Light Snow,0,2013-01-29 04:29:00
8:44 PM,30.2,26.6,86,29.84,2.0,Calm,Calm,-,0.00,Snow,Light Snow,0,2013-01-29 04:44:00
8:53 PM,30.9,27.0,85,29.89,3.0,Calm,Calm,-,0.00,Snow,Light Snow,0,2013-01-29 04:53:00
9:21 PM,30.2,26.6,86,29.85,7.0,Calm,Calm,-,0.00,,Overcast,0,2013-01-29 05:21:00
9:53 PM,30.9,27.0,85,29.89,8.0,Calm,Calm,-,0.00,,Overcast,0,2013-01-29 05:53:00
10:20 PM,30.2,26.6,86,29.85,2.5,Calm,Calm,-,0.00,Snow,Light Snow,0,2013-01-29 06:20:00
10:31 PM,30.2,26.6,86,29.84,4.0,Calm,Calm,-,0.00,Snow,Light Snow,0,2013-01-29 06:31:00
10:53 PM,30.9,28.0,89,29.89,3.0,Calm,Calm,-,0.00,Snow,Light Snow,0,2013-01-29 06:53:00
11:07 PM,30.2,28.4,93,29.85,2.5,Calm,Calm,-,0.00,Snow,Light Snow,0,2013-01-29 07:07:00
11:19 PM,30.2,26.6,86,29.84,5.0,Calm,Calm,-,0.00,Snow,Light Snow,0,2013-01-29 07:19:00
11:40 PM,30.2,28.4,93,29.85,5.0,Calm,Calm,-,0.00,Snow,Light Snow,0,2013-01-29 07:40:00
11:53 PM,30.9,28.0,89,29.91,4.0,Calm,Calm,-,0.00,Snow,Light Snow,0,2013-01-29 07:53:00